Location: *
(42.5628°N, 2.3633°E)
Time: 21:06:26
(UTC+00:00)

STARLINK-1079 - Pass Details

Date: 30 March 2020
Orbit: 549 x 550 km, 53.0° (Epoch: 31 May)

Event Time Altitude Azimuth Distance (km) Brightness Sun altitude
Rises 18:29:51 0° 308° (NW) 2,727 8.4 -3.6°
Reaches altitude 10° 18:32:12 10° 316° (NW) 1,831 7.2 -4.0°
Maximum altitude 18:36:08 39° 27° (NNE) 832 4.4 -4.7°
Drops below altitude 10° 18:40:02 10° 97° (E) 1,824 5.6 -5.4°
Enters shadow 18:40:43 - 100° (E) 2,076 5.8 -5.6°
